Location: Huish
(51.3667°N, 1.7833°W)
Time: 11:22:54
(UTC+00:00)

Daily predictions for brighter satellites

Satellite Brightness Start Highest point End
(mag) Time Altitude Azimuth Time Altitude Azimuth Time Altitude Azimuth
NOSS 3-4 (A) 4.1 20:30:10 10° WSW 20:36:02 62° NW 20:42:28 10° NE
NOSS 3-4 (C) 4.1 20:30:16 10° WSW 20:36:08 63° NW 20:42:34 10° NE
BREEZE-M DEB (TANK) 2.7 20:33:38 10° W 20:36:14 44° SSW 20:41:53 10° ESE
Cosmos 1697 Rocket 4.3 20:32:42 10° NW 20:37:43 33° WSW 20:42:42 10° SSW
SPOT 1/Viking Rocket 3.7 20:32:46 10° SSE 20:37:53 62° ENE 20:43:03 10° N
Cosmos 1076 Rocket 3.5 20:35:02 10° S 20:39:20 68° E 20:43:42 10° NNE
Cosmos 1151 Rocket 4.3 20:35:46 10° N 20:39:30 27° ENE 20:43:13 10° SE
SAR-Lupe-4 4.2 20:36:01 10° N 20:39:35 63° WNW 20:43:08 10° SSW
ATLAS 5 CENTAUR R/B 3.9 20:35:58 10° NW 20:39:55 24° NNE 20:44:27 10° ENE
OBJECT-B 3.6 20:40:08 10° SW 20:42:21 17° W 20:44:35 10° NW
ATLAS 2AS CENTAUR R/B 3.2 20:36:56 10° SW 20:44:52 87° NW 20:52:35 10° NE
Cosmos 773 Rocket 4.2 20:42:41 10° SSW 20:47:53 77° WNW 20:53:05 10° NNE
ATLAS 3B R/B 3.2 20:41:40 10° NW 20:48:37 63° SW 20:55:52 10° SSE
Cosmos 1833 Rocket 3.7 20:44:28 10° SW 20:49:59 53° NW 20:55:32 10° NNE
Terra 3.0 20:48:19 10° ESE 20:52:24 30° ENE 20:56:31 10° N
SPOT 5 3.4 20:50:58 10° SE 20:54:57 37° ENE 20:59:03 10° N
Cosmos 2082 Rocket 2.4 20:50:56 10° SSW 20:56:35 82° WNW 21:02:18 10° NNE
Cosmos 2056 Rocket 4.4 20:52:12 10° NNW 20:57:14 38° NE 21:02:08 10° ESE
Cosmos 1092 Rocket 4.2 20:51:20 10° SSE 20:57:25 57° E 21:03:36 10° NNE
Meteor 2-19 Rocket 4.5 20:51:32 10° S 20:57:29 63° E 21:03:29 10° NNE
Cosmos 2278 4.4 20:52:20 10° NW 20:57:47 51° WSW 21:03:14 10° S
Cosmos 1633 3.0 20:55:04 10° SSW 20:58:39 66° WNW 21:02:16 10° N
BREEZE-M DEB (TANK) 2.3 20:58:53 10° WSW 21:01:29 36° S 21:03:12 10° E
Cosmos 332 Rocket 3.9 20:58:57 10° NNW 21:03:52 78° WSW 21:08:45 10° SSE
Cosmos 1606 4.3 21:01:21 10° NNW 21:04:46 33° W 21:08:10 10° SSW
Cosmos 2360 Rocket 2.9 20:59:34 10° NNW 21:04:57 42° NE 21:10:08 11° ESE
ERS-1 Rocket 3.4 21:00:35 10° SE 21:05:23 51° ENE 21:10:16 10° N
Cosmos 158 Rocket 4.0 21:03:11 10° S 21:08:17 65° ESE 21:13:34 10° NNE
ATLAS CENTAUR R/B 4.5 21:03:08 10° WNW 21:09:39 68° NNE 21:27:29 10° ESE
Cosmos 2026 Rocket 4.2 21:04:12 10° S 21:10:23 57° E 21:16:31 10° NNE
GP-B 3.2 21:07:21 10° N 21:11:46 58° E 21:16:08 10° SSE
ISS -2.2 21:10:51 10° W 21:13:38 24° SW 21:15:56 13° SSE
Cosmos 2333 Rocket 3.5 21:10:18 10° NNW 21:15:18 30° NE 21:20:15 10° ESE
Nadezhda 4 Rocket 4.3 21:11:49 10° SSW 21:17:57 70° WNW 21:24:14 10° N
Meteor 1-26 Rocket 4.4 21:11:57 10° NNW 21:17:58 90° NE 21:23:48 10° S
Cosmos 1371 Rocket 4.4 21:13:35 10° NNW 21:18:54 57° ENE 21:23:22 14° SE
Spot 2 Rocket 3.5 21:14:50 10° SSE 21:19:58 89° ENE 21:25:07 10° NNW
Cosmos 1812 3.4 21:16:40 10° N 21:20:20 39° ENE 21:23:04 16° SE
SPOT 3 Rocket 4.4 21:15:47 10° S 21:20:51 49° W 21:25:56 10° NNW
Cosmos 220 Rocket 4.2 21:18:06 10° NNW 21:22:25 62° ENE 21:25:50 16° SE
Cosmos 1680 Rocket 3.9 21:18:37 10° S 21:23:34 43° ESE 21:28:32 10° NE
CZ-2C R/B 3.6 21:19:20 10° NNE 21:23:55 83° ESE 21:28:23 10° SSW
Cosmos 1980 Rocket 3.9 21:21:20 10° NW 21:25:56 27° WSW 21:30:33 10° SSW
Okean 3 Rocket 4.0 21:24:58 12° SSE 21:28:51 48° E 21:33:12 10° NNE
RESURS DK-1 3.9 21:25:01 10° WSW 21:28:57 41° NW 21:32:54 10° NNE
USA 245 4.2 21:25:38 10° S 21:30:37 58° WSW 21:34:41 10° NNW
USA 234 3.7 21:25:00 10° E 21:31:27 62° NNE 21:37:54 10° WNW
Cosmos 2237 Rocket 4.4 21:31:35 10° NNW 21:35:20 18° NNE 21:39:06 10° ENE
Cosmos 1933 4.3 21:32:14 10° NNW 21:36:07 45° W 21:39:58 10° SSW
Cosmos 2322 Rocket 2.2 21:31:39 10° NNW 21:37:20 83° WSW 21:41:46 17° SSE
ERS-2 4.5 21:35:12 10° N 21:38:17 26° WNW 21:41:20 10° WSW
Cosmos 1428 Rocket 4.5 21:33:37 10° S 21:39:46 89° E 21:45:55 10° N
Resurs 01 Rocket 3.7 21:38:42 10° SW 21:42:15 23° W 21:45:49 10° NW
Cosmos 1408 Rocket 4.3 21:40:12 19° SE 21:42:45 36° E 21:46:44 10° NNE
Cosmos 2151 4.0 21:40:00 10° SSW 21:44:05 46° WNW 21:48:14 10° N
Gblst 52 Del rocket 4.5 21:41:49 10° W 21:47:48 89° NNE 21:54:39 10° E
CARTOSAT-1 4.4 21:46:36 11° S 21:50:33 47° W 21:54:45 10° NNW
Cosmos 1553 Rocket 3.9 21:44:35 10° N 21:50:43 85° E 21:55:36 17° S
Cosmos 2084 3.9 21:48:52 15° S 21:51:47 34° SE 21:55:36 10° ENE
Gbstr 26 Del rocket 3.8 21:50:26 10° W 21:53:45 29° SSW 21:55:26 21° S
CZ-4B DEB 4.2 21:53:29 28° SSE 21:54:59 68° ENE 21:58:09 10° N
Meteor 2-3 Rocket 4.2 21:49:31 10° SSW 21:55:07 62° WNW 22:00:51 10° N
Cosmos 2266 Rocket 4.5 21:53:29 19° SSE 21:57:28 42° E 22:03:18 10° NNE
Cosmos 2219 Rocket 2.9 21:53:30 10° NNW 21:58:53 45° NE 22:02:58 17° ESE
Cosmos 1624 Rocket 4.0 21:54:13 10° NNW 21:59:27 82° WSW 22:02:57 21° SSE
Cosmos 1862 3.4 21:57:04 22° S 21:59:27 59° E 22:03:23 10° NNE
Cosmos 1782 4.0 21:58:33 10° NNW 22:02:19 39° W 22:05:38 12° SSW
Cosmos 2228 Rocket 4.1 21:59:50 10° N 22:03:52 34° ENE 22:06:05 21° ESE
Cosmos 1515 Rocket 3.6 21:59:41 10° N 22:04:10 75° ENE 22:06:43 25° SSE
H-2A R/B 3.8 22:01:07 10° NNE 22:05:11 46° E 22:07:15 25° SSE
SL-16 R/B 3.1 22:00:22 10° NW 22:05:41 42° WSW 22:09:55 16° S
NOSS 2-1 (E) 3.5 22:05:22 32° SSE 22:05:54 34° SE 22:09:04 10° ENE
NOSS 3-1 (C) 4.1 22:00:36 10° NW 22:07:49 80° NE 22:14:29 18° SE
ARIANE 5 R/B 3.7 22:04:24 13° SSW 22:08:08 39° W 22:12:20 10° NNW
Cosmos 2333 4.3 22:02:59 10° NNW 22:08:36 67° ENE 22:12:13 22° SE
Cosmos 2237 4.5 22:04:20 10° NW 22:10:00 63° WSW 22:13:45 21° S
Cosmos 1420 Rocket 4.0 22:05:05 10° NNW 22:10:28 86° ENE 22:13:43 24° SSE
USA 276 3.9 22:08:28 10° WSW 22:10:41 18° SSW 22:10:46 18° SSW
COSMOS 2455 3.8 22:09:10 22° SE 22:11:22 28° ESE 22:16:21 10° NE
COSMOS 2428 3.4 22:08:07 10° NNW 22:13:38 47° NE 22:17:35 18° ESE
Meteor 2-6 Rocket 4.3 22:09:43 10° NNW 22:15:08 69° W 22:18:53 20° S
CZ-4C R/B 4.4 22:09:50 10° NW 22:15:12 30° N 22:21:31 10° ENE
Cosmos 1151 Rocket 4.2 22:13:07 10° NNW 22:17:10 38° W 22:20:31 14° SSW
Cosmos 1655 Rocket 4.1 22:12:44 20° S 22:17:15 65° E 22:23:35 10° NNE
Cosmos 1766 Rocket 4.2 22:14:49 11° SSW 22:19:03 55° WNW 22:23:22 10° N
S3M 4.1 22:14:34 10° N 22:21:00 86° W 22:25:25 22° S
Cosmos 1328 Rocket 4.4 22:17:24 10° NNW 22:21:39 45° W 22:24:43 17° SSW
USA 229 DEB 4.1 22:14:52 10° NW 22:22:03 69° NE 22:28:16 16° ESE
USA 229 4.1 22:14:57 10° NW 22:22:08 68° NE 22:28:23 16° ESE
ATLAS 5 CENTAUR R/B 2.8 22:20:28 10° NW 22:25:34 53° NE 22:30:39 15° ESE
Cosmos 1174 3.0 22:22:50 10° NW 22:25:52 70° SW 22:26:29 49° S
Cosmos 1452 Rocket 3.6 22:24:43 10° NNW 22:29:59 68° ENE 22:32:49 27° SE
Terra 2.7 22:26:49 18° SSW 22:30:01 44° W 22:34:35 10° NNW
COSMOS 2487 3.6 22:31:49 25° E 22:31:49 25° E 22:34:30 10° NE
SPOT 5 4.2 22:30:02 13° SSW 22:33:10 28° W 22:36:59 10° NW
ALOS 2 3.8 22:33:57 21° ESE 22:36:00 32° ENE 22:39:55 10° N
ATLAS 2AS CENTAUR R/B 4.4 22:29:27 10° W 22:36:48 40° NNW 22:43:48 10° NE
USA 267 3.5 22:32:16 10° ENE 22:38:32 46° SE 22:44:47 10° SSW
Cosmos 2056 Rocket 4.4 22:34:24 10° NW 22:39:27 42° WSW 22:42:28 21° SSW
Meteor 1-27 Rocket 3.7 22:35:26 10° NNW 22:41:05 87° W 22:44:15 28° S
SL-27 R/B 2.6 22:39:50 26° SSW 22:41:45 73° WNW 22:45:22 10° NNE
NOSS 3-1 (A) 4.1 22:35:16 10° NW 22:42:31 81° NE 22:48:48 20° SE
Cosmos 2360 Rocket 2.9 22:43:41 10° NW 22:48:57 42° WSW 22:51:53 24° SSW
IRIDIUM 104 4.3 22:44:28 10° N 22:49:45 86° E 22:52:18 31° S
NOSS 2-1 (C) 2.9 22:48:04 20° SW 22:50:12 79° NW 22:53:43 10° NE
Cosmos 1805 Rocket 3.8 22:49:13 37° SSE 22:50:42 55° E 22:55:03 10° NNE
Cosmos 1110 Rocket 4.3 22:50:42 10° NNW 22:56:01 62° ENE 22:58:40 29° SE
NOSS 2-1 (D) 3.1 22:55:30 17° SW 22:57:54 67° NW 23:01:26 10° NE
IRIDIUM 114 4.3 22:53:38 10° N 22:58:53 81° W 23:01:25 31° S
Cosmos 2333 Rocket 2.3 22:54:24 10° NW 23:00:02 66° WSW 23:02:38 32° S
Cosmos 1833 4.2 22:56:03 15° SSW 23:00:55 85° WNW 23:06:44 10° NNE
Cosmos 1331 Rocket 4.3 22:56:14 10° NNW 23:01:28 61° ENE 23:03:58 30° SE
Cosmos 1500 Rocket 3.7 22:59:40 29° SSW 23:01:50 70° WNW 23:06:17 10° N
IRIDIUM 103 4.5 23:02:49 10° N 23:08:02 69° W 23:10:34 30° SSW
Cosmos 972 Rocket 3.9 23:07:28 31° SSW 23:10:06 80° ESE 23:15:07 10° NNE
Cosmos 2322 3.9 23:04:36 10° NW 23:10:13 59° WSW 23:12:44 33° S
COBE Rocket 3.9 23:09:07 36° S 23:10:56 66° W 23:15:37 10° NNW
NOSS 0 Rocket 4.0 23:06:14 10° NNW 23:12:30 73° NE 23:16:01 27° SE
USA 234 3.2 23:10:02 23° SE 23:14:25 75° SSW 23:21:00 10° WNW
Cosmos 2297 Rocket 3.6 23:17:11 20° ESE 23:18:16 21° E 23:22:25 10° NE
Cosmos 2322 Rocket 4.3 23:17:16 10° WNW 23:20:29 16° W 23:23:35 10° SW
Cosmos 2237 Rocket 2.7 23:15:06 10° NNW 23:20:42 56° NE 23:24:02 24° ESE
Lacrosse 5 3.7 23:21:59 16° ESE 23:21:59 16° ESE 23:24:01 10° E
Cosmos 1743 Rocket 4.4 23:19:29 24° SW 23:21:51 47° WNW 23:26:10 10° N
Cosmos 2084 Rocket 3.8 23:18:00 10° NW 23:22:07 61° NE 23:24:07 29° ESE
Meteor 1-18 Rocket 4.4 23:18:26 10° N 23:24:20 72° ENE 23:26:56 34° SSE
Cosmos 1500 3.7 23:26:57 43° ESE 23:27:22 45° E 23:31:04 10° NNE
Cosmos 2285 Rocket 4.3 23:23:35 10° NNW 23:29:43 56° WSW 23:32:33 31° SSW
Cosmos 2227 Rocket 3.7 23:28:53 19° ESE 23:30:01 20° E 23:33:58 10° NE
Sich 1 3.0 23:28:46 42° SSW 23:30:11 79° W 23:34:33 10° N
Okean 1 3.2 23:26:54 10° N 23:30:56 89° W 23:31:46 55° S
Cosmos 2084 4.5 23:27:15 10° WSW 23:31:12 45° NW 23:35:18 10° NE
Meteor 1-25 Rocket 4.1 23:30:16 34° S 23:32:48 89° E 23:38:25 10° NNE
Cosmos 1633 Rocket 3.2 23:33:06 45° SE 23:34:05 58° E 23:38:23 10° NNE
Cosmos 494 Rocket 3.9 23:33:17 40° S 23:35:06 72° ESE 23:40:14 10° NNE
Cosmos 1666 Rocket 3.5 23:37:07 48° S 23:38:16 76° E 23:42:43 10° NNE
Cosmos 1048 Rocket 3.9 23:39:39 33° SSW 23:42:00 82° WNW 23:47:10 10° NNE
Cosmos 2228 Rocket 4.4 23:38:09 10° NNW 23:42:01 30° W 23:43:34 24° SW
Cosmos 2219 Rocket 2.9 23:37:37 10° NW 23:42:48 39° WSW 23:44:40 30° SSW
Cosmos 489 Rocket 4.5 23:43:32 29° SSW 23:47:01 89° WNW 23:53:26 10° NNE
Meteor 1-19 Rocket 4.3 23:41:45 10° NNW 23:47:23 68° W 23:49:32 37° SSW
NOSS 2-2 (C) 4.3 23:42:36 10° NW 23:47:34 76° NE 23:52:23 20° SE
SL-16 R/B 3.4 23:42:36 10° NNW 23:47:53 38° NE 23:52:43 12° ESE
SL-08 R/B 4.4 23:45:16 35° S 23:48:03 76° E 23:54:13 10° NNE
Cosmos 1602 4.2 23:52:57 42° WSW 23:53:52 53° WNW 23:57:40 10° N
